sat.trackr.live / text

‹ back to catalog

STARLINK-2141

NORAD 47731 · 2021-017K

PAYLOAD ACTIVE UNKNOWN

§ Identity

Operator
Country
US
Launch date
2021-03-04
Launch site
AFETR
Launch vehicle
Mass (kg)
RCS (m²)

Purposes: comms

External: N2YO · Heavens-Above · Gunter

§ Orbital elements

Epoch: 2026-05-25T03:50:29.556384Z

Period
92.19 min
Inclination
53.1533°
Eccentricity
0.0007810
Mean motion
15.61916257 rev/d
Perigee alt
376.8 km
Apogee alt
387.4 km
Semi-major
6,760.3 km
B*
1.0248e-3
RAAN
195.0292°
Arg perigee
350.1763°
Mean anomaly
9.9098°
Rev number
28,975

§ Raw data

STARLINK-21411 47731U 21017K   26145.16006431  .00091425  00000+0  10248-2 0  99992 47731  53.1533 195.0292 0007810 350.1763   9.9098 15.61916257289752

JSON: /api/v1/satellites/47731 · /tle

For live sub-satellite position, see the globe view (requires WebGL).

§ Visibility from observer

Set your observer location to see the next 7 days of passes ≥ 10°. The values pass through the URL so the page stays shareable.

No JS? Fill the form by hand. The geolocation button needs JavaScript.